Location: Unspecified
(49.2170°N, 0.0000°E)
Time: 07:30:17
(UTC+00:00)

Explorer 7 - Pass Details

Date: 26 January 2021
Orbit: 484 x 677 km, 50.3° (Epoch: 04 March)

Event Time Altitude Azimuth Distance (km) Brightness Sun altitude
Exits shadow 04:43:34 32° 92° (E) 901 8.4 -28.5°
Drops below altitude 10° 04:45:55 10° 77° (ENE) 1,768 10.3 -28.1°
Sets 04:48:14 0° 74° (ENE) 2,691 11.5 -27.7°
